Change the Weather History Date:

Friday, October 25, 2013

  Actual Average Record
Temperature  
Mean Temperature 41 °F 45 °F  
Max Temperature 46 °F 55 °F 70 °F (2010)
Min Temperature 35 °F 34 °F 19 °F (2002)
Degree Days  
Heating Degree Days 24 20  
Month to date heating degree days 283 414  
Since 1 July heating degree days 605 692  
Cooling Degree Days 0 0  
Month to date cooling degree days 0 0  
Year to date cooling degree days 503 311  
Moisture  
Dew Point 29 °F    
Average Humidity 65    
Maximum Humidity 85    
Minimum Humidity 45    
Precipitation  
Precipitation T in 0.11 in 2.39 in (2008)
Month to date precipitation 2.79 3.08  
Year to date precipitation 38.54 34.19  
Sea Level Pressure  
Sea Level Pressure 30.06 in    
Wind  
Wind Speed 6 mph (West)    
Max Wind Speed 16 mph    
Max Gust Speed 21 mph    
Visibility 10 miles    
Events      
T = Trace of Precipitation, MM = Missing Value Source: NWS Daily Summary

Daily Weather History Graph

Daily Weather History Graph

Search for Another Location

Airport or City:

Trip Planner

Search our weather history database for the weather conditions in past years. The results will help you decide how hot, cold, wet, or windy it might be!

Date:

Astronomy

Oct. 25, 2013 Rise Set
Actual Time 7:18 AM EDT 5:54 PM EDT
Civil Twilight 6:49 AM EDT 6:23 PM EDT
Nautical Twilight 6:16 AM EDT 6:56 PM EDT
Astronomical Twilight 5:43 AM EDT 7:29 PM EDT
Moon 11:09 PM EDT (10/25) 12:59 PM EDT (10/25)
Length of Visible Light 11h 33m
Length of Day
10h 35m
Waning Gibbous, 62% of the Moon is Illuminated
Oct 25
Waning Gibbous
Oct 26
Last Quarter
Nov 3
New
Nov 10
First Quarter
Nov 17
Full

Hourly Weather History & Observations

Time (EDT) Temp. Windchill Dew Point Humidity Pressure Visibility Wind Dir Wind Speed Gust Speed Precip Events Conditions
12:54 AM 39.0 °F 36.8 °F 33.1 °F 79% 29.94 in 10.0 mi Variable 3.5 mph - N/A   Overcast
1:54 AM 39.0 °F 34.8 °F 33.1 °F 79% 29.95 in 10.0 mi WSW 5.8 mph - N/A   Overcast
2:38 AM 37.4 °F 33.8 °F 33.8 °F 87% 29.93 in 10.0 mi SW 4.6 mph - N/A   Overcast
2:54 AM 37.9 °F 34.4 °F 33.1 °F 83% 29.96 in 10.0 mi SW 4.6 mph - N/A   Overcast
3:54 AM 37.9 °F 34.4 °F 33.1 °F 83% 29.96 in 10.0 mi WNW 4.6 mph - N/A   Overcast
4:54 AM 37.9 °F 34.4 °F 33.1 °F 83% 29.97 in 10.0 mi Variable 4.6 mph - N/A   Overcast
5:54 AM 37.0 °F 33.3 °F 33.1 °F 86% 29.99 in 10.0 mi West 4.6 mph - N/A   Overcast
6:54 AM 37.0 °F 32.4 °F 33.1 °F 86% 30.01 in 10.0 mi WSW 5.8 mph - N/A   Overcast
7:20 AM 37.4 °F 30.3 °F 32.0 °F 81% 30.01 in 10.0 mi West 10.4 mph - N/A   Overcast
7:54 AM 36.0 °F 32.1 °F 28.9 °F 76% 30.04 in 9.0 mi WNW 4.6 mph - 0.00 in   Overcast
8:54 AM 37.9 °F - 32.0 °F 79% 30.07 in 10.0 mi Calm Calm - N/A   Overcast
9:54 AM 39.0 °F 35.7 °F 28.0 °F 65% 30.08 in 10.0 mi WSW 4.6 mph - 0.01 in   Overcast
10:54 AM 41.0 °F 36.4 °F 27.0 °F 57% 30.07 in 10.0 mi WNW 6.9 mph 16.1 mph N/A   Mostly Cloudy
11:54 AM 43.0 °F 37.2 °F 27.0 °F 53% 30.08 in 10.0 mi NW 10.4 mph 17.3 mph N/A   Overcast
12:54 PM 42.1 °F 35.2 °F 25.0 °F 51% 30.08 in 10.0 mi West 12.7 mph 19.6 mph N/A   Overcast
1:54 PM 44.1 °F 39.0 °F 24.1 °F 45% 30.08 in 10.0 mi NW 9.2 mph - N/A   Scattered Clouds
2:54 PM 44.1 °F 38.1 °F 24.1 °F 45% 30.09 in 10.0 mi NNW 11.5 mph 17.3 mph N/A   Mostly Cloudy
3:54 PM 45.0 °F 40.1 °F 24.1 °F 44% 30.09 in 10.0 mi NW 9.2 mph 19.6 mph N/A   Mostly Cloudy
4:54 PM 44.1 °F 41.5 °F 25.0 °F 47% 30.10 in 10.0 mi NW 4.6 mph - N/A   Mostly Cloudy
5:54 PM 44.1 °F 42.5 °F 26.1 °F 49% 30.11 in 10.0 mi NW 3.5 mph - N/A   Overcast
6:54 PM 43.0 °F 37.7 °F 25.0 °F 49% 30.13 in 10.0 mi West 9.2 mph 16.1 mph N/A   Partly Cloudy
7:54 PM 41.0 °F 38.0 °F 26.1 °F 55% 30.13 in 10.0 mi SW 4.6 mph - N/A   Partly Cloudy
8:54 PM 39.9 °F 36.7 °F 28.0 °F 63% 30.14 in 10.0 mi SW 4.6 mph - N/A   Partly Cloudy
9:54 PM 37.9 °F 33.5 °F 28.9 °F 70% 30.15 in 10.0 mi SW 5.8 mph - N/A   Partly Cloudy
10:54 PM 39.0 °F 35.7 °F 30.9 °F 73% 30.16 in 10.0 mi SSW 4.6 mph - N/A   Overcast
11:54 PM 39.0 °F 36.8 °F 32.0 °F 76% 30.14 in 10.0 mi SSW 3.5 mph - N/A   Overcast